Flight Track Log - Related Links

Times and Time Zones

All times are in EDT time to prevent confusion due to time zone crossing. See the FLG4208 flight status page for this flight to view local times or setup timezone preferences in your user account.

Time Position Orientation Groundspeed Altitude Reporting Facility
EDT Latitude Longitude Course Direction KTS MPH feet Rate Location/Type
Tue 10:36:39 AM 42.2103 -83.3503 275° West 145 167 1,400  Level FAA TRACON SMA TRACON (SMA)
Tue 10:36:59 AM 42.2075 -83.3658 256° West 158 182 2,400 2,850 Climbing FAA TRACON SMA TRACON (SMA)
Tue 10:37:19 AM 42.2103 -83.3908 279° West 183 211 3,300 2,250 Climbing FAA TRACON SMA TRACON (SMA)
Tue 10:37:39 AM 42.2122 -83.4128 277° West 211 243 3,900 1,200 Climbing FAA TRACON SMA TRACON (SMA)
Tue 10:37:59 AM 42.2144 -83.4431 276° West 240 276 4,100 300 Climbing FAA TRACON SMA TRACON (SMA)
Tue 10:38:19 AM 42.2178 -83.4753 278° West 252 290 4,100 -146 Level FAA TRACON SMA TRACON (SMA)
Tue 10:38:40 AM 42.2197 -83.5008 276° West 249 287 4,000  Descending FAA TRACON SMA TRACON (SMA)
Tue 10:39:00 AM 42.2176 -83.6478 275° West  Level FlightAware Approximate
Tue 10:39:00 AM 42.2217 -83.5392 274° West 247 284 4,100  Level FAA TRACON SMA TRACON (SMA)
Tue 10:39:19 AM 42.2236 -83.5675 275° West 247 284 4,200 923 Climbing FAA TRACON SMA TRACON (SMA)
Tue 10:39:39 AM 42.2256 -83.5958 275° West 246 283 4,700 1,171 Climbing FAA TRACON SMA TRACON (SMA)
Tue 10:40:00 AM 42.2242 -83.7476 275° West  Level FlightAware Approximate
Tue 10:40:00 AM 42.2278 -83.6317 275° West 250 288 5,000  Level FAA TRACON SMA TRACON (SMA)
Tue 10:40:20 AM 42.2297 -83.6611 275° West 255 293 5,100 769 Climbing FAA TRACON SMA TRACON (SMA)
Tue 10:40:39 AM 42.2319 -83.6911 276° West 258 297 5,500 1,385 Climbing FAA TRACON SMA TRACON (SMA)
Tue 10:40:59 AM 42.2339 -83.7206 275° West 257 296 6,000 1,650 Climbing FAA TRACON SMA TRACON (SMA)
Tue 10:41:00 AM 42.2308 -83.8475 275° West  Level FlightAware Approximate
Tue 10:41:19 AM 42.2364 -83.7581 275° West 262 302 6,600  Level FAA TRACON SMA TRACON (SMA)
Tue 10:41:40 AM 42.2383 -83.7892 275° West 266 306 6,900 585 Climbing FAA TRACON SMA TRACON (SMA)
Tue 10:42:00 AM 42.2411 -83.8272 276° West 264 304 7,000 154 Climbing FAA TRACON SMA TRACON (SMA)
Tue 10:42:19 AM 42.2428 -83.8567 274° West 260 299 7,000  Level FAA TRACON SMA TRACON (SMA)
Tue 10:42:39 AM 42.2450 -83.8858 276° West 256 295 7,000  Level FAA TRACON SMA TRACON (SMA)
Tue 10:43:00 AM 42.2472 -83.9217 275° West 252 290 7,000  Level FAA TRACON SMA TRACON (SMA)
Tue 10:43:19 AM 42.2489 -83.9506 274° West 251 289 7,000  Level FAA TRACON SMA TRACON (SMA)
Tue 10:43:39 AM 42.2508 -83.9783 275° West 252 290 7,000 150 Level FAA TRACON SMA TRACON (SMA)
Tue 10:43:59 AM 42.2533 -84.0144 275° West 252 290 7,100 1,024 Climbing FAA TRACON SMA TRACON (SMA)
Tue 10:44:20 AM 42.2553 -84.0442 275° West 256 295 7,700 1,756 Climbing FAA TRACON SMA TRACON (SMA)
Tue 10:44:40 AM 42.2572 -84.0747 275° West 261 300 8,300 1,846 Climbing FAA TRACON SMA TRACON (SMA)
Tue 10:44:59 AM 42.2594 -84.1058 276° West 267 307 8,900 2,154 Climbing FAA TRACON SMA TRACON (SMA)
Tue 10:45:19 AM 42.2617 -84.1450 274° West 270 311 9,700 1,610 Climbing FAA TRACON SMA TRACON (SMA)
Tue 10:45:40 AM 42.2639 -84.1761 276° West 272 313 10,000 585 Climbing FAA TRACON SMA TRACON (SMA)
Tue 10:46:00 AM 42.2650 -84.2197 272° West 307 353 10,100  Climbing FAA TRACON SMA TRACON (SMA)
Tue 10:46:19 AM 42.2639 -84.2561 268° West 321 369 10,000 -154 Descending FAA TRACON SMA TRACON (SMA)
Tue 10:46:39 AM 42.2625 -84.2933 267° West 323 372 10,000  Level FAA TRACON SMA TRACON (SMA)
Tue 10:46:59 AM 42.2617 -84.3400 269° West 324 373 10,000  Level FAA TRACON SMA TRACON (SMA)
Tue 10:47:20 AM 42.2611 -84.3781 269° West 327 376 10,000  Level FAA TRACON SMA TRACON (SMA)
Tue 10:47:40 AM 42.2608 -84.4167 269° West 332 382 10,000  Level FAA TRACON SMA TRACON (SMA)
Tue 10:47:59 AM 42.2603 -84.4556 269° West 333 383 10,000  Level FAA TRACON SMA TRACON (SMA)
Tue 10:48:19 AM 42.2592 -84.5036 268° West 334 384 10,000  Level FAA TRACON SMA TRACON (SMA)
Tue 10:48:40 AM 42.2586 -84.5425 269° West 335 386 10,000  Level FAA TRACON SMA TRACON (SMA)
Tue 10:49:00 AM 42.2586 -84.5425 360° North 335 386 10,000  Level FAA TRACON SMA TRACON (SMA)
Tue 10:49:19 AM 42.2586 -84.5425 360° North 335 386 10,000 -277 Level FAA TRACON SMA TRACON (SMA)
Tue 10:50:05 AM 42.2556 -84.6950 269° West 307 353 9,700 -1,222 Descending Chicago Center
Tue 10:51:07 AM 42.2539 -84.7883 269° West 259 298 7,800 -1,403 Descending Chicago Center
Tue 10:52:09 AM 42.2556 -84.8861 271° West 260 299 6,800 -1,073 Descending Chicago Center
Tue 10:53:10 AM 42.2714 -85.0008 281° West 261 300 5,600 -1,073 Descending Chicago Center
Tue 10:54:12 AM 42.2831 -85.0939 280° West 255 293 4,600 -774 Descending Chicago Center
Tue 10:55:14 AM 42.2958 -85.1828 281° West 247 284 4,000 -293 Descending Chicago Center
Tue 10:56:15 AM 42.3081 -85.2731 280° West 245 282 4,000  Level Chicago Center
Tue 10:57:17 AM 42.3222 -85.3642 282° West 246 283 4,000 -242 Level Chicago Center
Tue 10:58:19 AM 42.3258 -85.4522 273° West 240 276 3,500 -581 Descending Chicago Center
Tue 10:59:21 AM 42.3233 -85.5233 267° West 207 238 2,800 -677 Descending Chicago Center

Login

Don't have an account? Register now (free) for customized features, flight alerts, and more!